DW8032 Weather Reports


Display with metric or nautical units.
time (UTC)temp
F
wind
direction
speed
MPH
gust
MPH
rain 1hr
in
rain 24hr
in
rain mn
in
humidity
%
barometer
mb
20260505023000 57 262 1.0 2.0 0.00 0.00 0.00 55 1018.1
20260505021001 57 271 1.0 2.0 0.00 0.00 0.00 55 1018.0
20260505020002 57 243 1.0 2.0 0.00 0.00 0.00 55 1018.0
20260505015001 57 263 1.0 2.0 0.00 0.00 0.00 55 1017.9
20260505012002 57 309 1.0 2.0 0.00 0.00 0.00 55 1017.8
20260505010959 57 259 0.0 2.0 0.00 0.00 0.00 55 1017.6
20260505010002 58 283 0.0 2.0 0.00 0.00 0.00 54 1017.8
20260505003959 59 256 0.0 1.0 0.00 0.00 0.00 52 1017.5
20260505003001 59 274 1.0 2.0 0.00 0.00 0.00 50 1017.3
20260505000002 61 359 1.0 1.0 0.00 0.00 0.00 46 1017.3
20260504235001 61 303 1.0 2.0 0.00 0.00 0.00 46 1017.1
20260504233001 61 246 0.0 1.0 0.00 0.00 0.00 45 1017.1
20260504230959 61 359 0.0 2.0 0.00 0.00 0.00 45 1017.0
20260504230001 61 267 0.0 1.0 0.00 0.00 0.00 46 1017.0
20260504225001 61 302 0.0 1.0 0.00 0.00 0.00 46 1017.0
20260504224001 62 302 0.0 1.0 0.00 0.00 0.00 44 1016.9
20260504223000 62 236 0.0 1.0 0.00 0.00 0.00 41 1017.1
20260504222000 62 242 0.0 1.0 0.00 0.00 0.00 43 1017.1
20260504220959 63 243 0.0 1.0 0.00 0.00 0.00 40 1017.2
20260504220004 63 249 0.0 1.0 0.00 0.00 0.00 39 1017.2
20260504215001 63 228 1.0 1.0 0.00 0.00 0.00 38 1017.2
20260504213959 64 256 1.0 2.0 0.00 0.00 0.00 37 1017.2
20260504213001 65 255 1.0 2.0 0.00 0.00 0.00 40 1017.2
20260504212000 65 248 1.0 2.0 0.00 0.00 0.00 38 1017.2
20260504211000 65 248 1.0 3.0 0.00 0.00 0.00 36 1017.1
20260504210002 66 250 1.0 2.0 0.00 0.00 0.00 39 1017.1
20260504204959 66 257 1.0 2.0 0.00 0.00 0.00 35 1017.2
20260504204001 67 248 1.0 2.0 0.00 0.00 0.00 33 1017.1
20260504203001 69 304 1.0 2.0 0.00 0.00 0.00 33 1017.1
20260504201001 70 326 0.0 2.0 0.00 0.00 0.00 37 1017.3
20260504200002 69 246 1.0 2.0 0.00 0.00 0.00 34 1017.4
20260504194959 69 50 1.0 4.0 0.00 0.00 0.00 35 1017.5
20260504194001 69 247 1.0 3.0 0.00 0.00 0.00 35 1017.6
20260504192959 69 20 1.0 5.0 0.00 0.00 0.00 34 1017.8
20260504191959 70 76 2.0 3.0 0.00 0.00 0.00 35 1017.8
20260504190958 71 355 1.0 3.0 0.00 0.00 0.00 35 1017.9
20260504190003 71 315 1.0 3.0 0.00 0.00 0.00 37 1017.9
20260504185001 70 360 1.0 3.0 0.00 0.00 0.00 36 1018.1
20260504184000 70 66 1.0 3.0 0.00 0.00 0.00 35 1018.2
20260504183000 70 191 1.0 4.0 0.00 0.00 0.00 33 1018.3
20260504182000 69 249 1.0 4.0 0.00 0.00 0.00 35 1018.4
20260504174959 70 276 1.0 3.0 0.00 0.00 0.00 29 1018.6
20260504173959 70 355 1.0 3.0 0.00 0.00 0.00 32 1018.8
20260504172000 70 278 0.0 3.0 0.00 0.00 0.00 31 1018.9
20260504151000 65 116 1.0 5.0 0.00 0.00 0.00 37 1020.2
20260504140959 61 225 1.0 5.0 0.00 0.00 0.00 40 1020.0
20260504082002 48 266 1.0 2.0 0.00 0.00 0.00 53 1018.7
20260504080959 48 269 1.0 2.0 0.00 0.00 0.00 53 1018.5
20260504045959 49 269 1.0 2.0 0.00 0.00 0.00 53 1019.1
20260504044959 49 277 1.0 2.0 0.00 0.00 0.00 53 1019.1
20260504043958 48 270 0.0 1.0 0.00 0.00 0.00 54 1018.9
20260504042959 49 270 1.0 1.0 0.00 0.00 0.00 53 1018.9
20260504042000 49 269 1.0 1.0 0.00 0.00 0.00 54 1018.9
20260504040000 48 269 0.0 1.0 0.00 0.00 0.00 55 1018.8
20260504034959 48 269 0.0 1.0 0.00 0.00 0.00 55 1018.8
20260504034000 49 269 0.0 1.0 0.00 0.00 0.00 54 1018.9
20260504033001 49 269 0.0 1.0 0.00 0.00 0.00 53 1019.0
20260504031959 49 269 1.0 1.0 0.00 0.00 0.00 53 1019.0
20260504030959 49 269 1.0 1.0 0.00 0.00 0.00 52 1019.0
20260504030002 50 273 1.0 2.0 0.00 0.00 0.00 51 1019.0